Weather Service Report


829 
ASUS45 KREV 292310
RWRNV 
NEVADA REGIONAL WEATHER ROUNDUP
NATIONAL WEATHER SERVICE RENO NV
300 PM PST THU JAN 29 2015

NOTE: "FAIR" INDICATES FEW OR NO CLOUDS BELOW 12,000 FEET WITH NO
SIGNIFICANT WEATHER AND/OR OBSTRUCTIONS TO VISIBILITY.

NVZ001-003-004-300000-
WESTERN NEVADA
  
CITY           SKY/WX    TMP DP  RH WIND       PRES   REMARKS
RENO           PTSUNNY   55  34  45 E8        30.16F                  
CARSON CITY    FAIR      55  32  41 E14       30.16F                  
SLIDE MTN        N/A     34  32  93 E1          N/A                   
PYRAMID LAKE     N/A     48 N/A N/A N7          N/A                   
FALLON         PTSUNNY   52  37  56 CALM      30.18F                  
LOVELOCK       CLOUDY    50  39  66 CALM      30.19F                  
HAWTHORNE      MOSUNNY   54  34  47 CALM      30.17F                  
$$

NVZ002-CAZ072-073-300000-
NORTHERN AND CENTRAL SIERRA
  
CITY           SKY/WX    TMP DP  RH WIND       PRES   REMARKS
S. LAKE TAHOE  PTSUNNY   47  32  56 CALM      30.17S                  
SQUAW VLY 8000   N/A     39  32  75 CALM        N/A                   
SUSANVILLE     SUNNY     54  34  47 S7        30.18F                  
BLUE CANYON    MOSUNNY   53  32  44 SW7       30.15F                  
MAMMOTH LAKES  FAIR      48  25  40 SE3       30.17F                  
BRIDGEPORT     CLOUDY    50  26  39 E7        30.12S                  
$$

NVZ030-031-036-300000-
NORTHERN NEVADA
  
CITY           SKY/WX    TMP DP  RH WIND       PRES   REMARKS
ELKO           PTSUNNY   47  33  58 CALM      30.22S                  
WINNEMUCCA     MOSUNNY   50  35  56 NE13      30.20F                  
WENDOVER       CLOUDY    45  34  65 E6        30.28S                  
$$

NVZ035-037-300000-
CENTRAL NEVADA
  
CITY           SKY/WX    TMP DP  RH WIND       PRES   REMARKS
ELY            LGT RAIN  39  34  82 N5        30.24F                  
EUREKA           N/A     46  31  55 NE6       30.21S                  
$$

NVZ013-014-300000-
SOUTH CENTRAL NEVADA
  
CITY           SKY/WX    TMP DP  RH WIND       PRES   REMARKS
TONOPAH        CLOUDY    52  30  43 SE6       30.17F                  
$$

NVZ017-020-022-300000-
SOUTHERN NEVADA
  
CITY           SKY/WX    TMP DP  RH WIND       PRES   REMARKS
LAS VEGAS      CLOUDY    65  35  33 E3        30.05F                  
N. LAS VEGAS   CLOUDY    65  33  30 N7        30.08F                  
NELLIS AFB     CLOUDY    66  36  33 NE13      30.07F                  
HENDERSON      CLOUDY    62  38  40 N8        30.10F                  
MERCURY        CLOUDY    61  35  37 NE9       30.10F                  
$$

Return to Home page


Western Regional Climate Center, wrcc@dri.edu